Tracking 29892 objects as of 21-Nov-2024
HD Live streaming from Space Station
objects crossing your sky now

NOAA 16 DEB

Track NOAA 16 DEB now!
10-day predictions


NORAD ID: 41344
Int'l Code: 2000-055HM
Perigee: 755.3 km
Apogee: 795.2 km
Inclination: 99.1 °
Period: 100.2 minutes
Semi major axis: 7146 km
RCS: Unknown
Launch date: September 21, 2000
Source: United States (US)
Launch site: AIR FORCE WESTERN TEST RANGE (AFWTR)

Note: This is SATELLITE DEBRIS
Your satellite tracking list
Your tracking list is empty




NASA's NSSDC Master Catalog

Two Line Element Set (TLE):
1 41344U 00055HM  24325.00367000  .00012459  00000-0  41848-2 0  9996
2 41344  99.0902 163.9183 0027892  49.6410 310.7204 14.37098256457716
Source of the keplerian elements: AFSPC